Regional Weather Roundup
Issued by NWS

Home | Current Version | Previous Version | Graphics & Text | Print | Product List | Glossary On
Versions: 1 2 3 4 5 6 7 8 9 10 11 12 13 14 15 16 17 18 19 20 21 22 23 24 25 26 27 28 29 30 31 32 33 34 35 36 37 38 39 40 41 42 43 44 45 46 47 48 49
000
ASUS43 KDMX 221907
RWRIA

WEATHER ROUNDUP FOR IOWA
NATIONAL WEATHER SERVICE DES MOINES IA
100 PM CST SAT NOV 22 2014

NOTE: "FAIR" INDICATES FEW OR NO CLOUDS BELOW 12,000 FEET WITH NO
SIGNIFICANT WEATHER AND/OR OBSTRUCTIONS TO VISIBILITY.

* - THESE STATIONS ARE NOT NWS STATIONS...THUS NOT UNDER NWS
QUALITY CONTROL.  THEY ALSO DO NOT REPORT WEATHER SUCH
AS PRECIPITATION OR FOG.

IAZ001>003-012>014-020>022-031>034-043>046-222000-
   NORTHWEST IOWA

CITY           SKY/WX    TMP DP  RH WIND       PRES   REMARKS
CARROLL *      CLOUDY    41  41 100 SW15G22   29.75F FOG
CHEROKEE *     CLOUDY    39  39 100 S12       29.71F FOG     WCI  32
DENISON *      CLOUDY    41  41 100 SW16G22   29.73F FOG
LE MARS *      CLOUDY    41  37  87 S20G26    29.68F
ORANGE CITY *  CLOUDY    39  37  93 S17G23    29.66F FOG     WCI  30
SHELDON *      CLOUDY    37  37 100 S14G22    29.66F FOG     WCI  29
SIOUX CITY     PTSUNNY   44  37  76 S16       29.70F
SPENCER        CLOUDY    37  36  96 S13       29.69F FOG     WCI  29
STORM LAKE *   CLOUDY    39  39 100 SW20G26   29.71F FOG     WCI  30
$$

IAZ055>058-069>071-079>083-090>094-222000-
   SOUTHWEST IOWA

CITY           SKY/WX    TMP DP  RH WIND       PRES   REMARKS
ATLANTIC *     PTSUNNY   45  43  93 SW14      29.77F
AUDUBON *      PTSUNNY   43  37  81 S14G23    29.77F FOG
CLARINDA *     CLOUDY    52  48  87 SW10      29.81F
COUNCIL BLFS * MOSUNNY   46  43  87 SW14      29.74F
CRESTON *      CLOUDY    50  48  93 SW20      29.80F FOG
HARLAN  *      CLOUDY    41  41 100 SW18      29.79F FOG
LAMONI         FOG       49  49 100 SW10      29.81F VSB 1/2
RED OAK *      SUNNY     52  43  71 SW15G22   29.79F
SHENANDOAH *   PTSUNNY   55  46  71 SW15      29.79F
$$

IAZ047>049-059>061-072>074-084-222000-
   CENTRAL IOWA

CITY           SKY/WX    TMP DP  RH WIND       PRES   REMARKS
AMES           SUNNY     50  41  71 SW15      29.77F
ANKENY *       CLOUDY    52  45  76 SW14G21   29.79F
CHARITON *     FOG       50  50 100 SW13G18   29.80F VSB 3/4
DES MOINES     MOSUNNY   55  44  66 SW18G24   29.79S
GRINNELL*      CLOUDY    52  46  82 SW21G29   29.79F
KNOXVILLE *    CLOUDY    50  48  93 SW12G21   29.78F FOG
MARSHALLTOWN   SUNNY     52  43  71 SW13      29.77F
PELLA *        CLOUDY    52  48  87 SW7       29.81F
PERRY *        CLOUDY    46  43  87 SW18      29.77F
$$

IAZ004>006-015-016-023>025-035-036-222000-
   NORTH CENTRAL IOWA

CITY           SKY/WX    TMP DP  RH WIND       PRES   REMARKS
ALGONA *       CLOUDY    37  37 100 S15       29.72F FOG     WCI  28
CLARION *      CLOUDY    43  43 100 SW17      29.75F FOG
ESTHERVILLE    CLOUDY    35  35 100 S15       29.69F FOG     WCI  25
FORT DODGE *   CLOUDY    43  39  87 S20       29.75F
MASON CITY     CLOUDY    38  38 100 SW14      29.76S FOG     WCI  30
FOREST CITY *  FOG       37  37 100 S12       29.74S VSB 1/4 WCI  30
IOWA FALLS *   CLOUDY    46  43  87 SW15G21   29.77F
$$

IAZ007>011-017>019-026>030-037>042-050>054-066-222000-
   NORTHEAST IOWA

CITY           SKY/WX    TMP DP  RH WIND       PRES   REMARKS
CEDAR RAPIDS   CLOUDY    50  47  89 SW18      29.80F
CHARLES CITY * FOG       39  39 100 S10       29.77F VSB 0   WCI  32
CLINTON *      CLOUDY    52  46  82 SW13      29.87F
DECORAH *      CLOUDY    39  37  93 SW9G15    29.77F FOG     WCI  33
DUBUQUE        CLOUDY    45  32  60 SW12      29.80F HAZE
MONTICELLO *   CLOUDY    50  46  87 SW10G17   29.81F
OELWEIN *      CLOUDY    41  41 100 SW10      29.79F FOG
WATERLOO       CLOUDY    45  43  93 SW10      29.78F
$$

IAZ064-065-067-068-078-222000-
   EAST CENTRAL IOWA

CITY           SKY/WX    TMP DP  RH WIND       PRES   REMARKS
DAVENPORT      CLOUDY    51  46  83 SW13      29.85F
IOWA CITY      CLOUDY    48  47  96 S9        29.85F FOG
MT. PLEASANT * CLOUDY    55  48  76 S13       29.86F
MUSCATINE *    CLOUDY    54  48  82 SW9       29.86F
QUAD CITIES    CLOUDY    53  47  79 SW8       29.84F
$$

IAZ062-063-075>077-085>089-095>099-222000-
   SOUTHEAST IOWA

CITY           SKY/WX    TMP DP  RH WIND       PRES   REMARKS
BURLINGTON     CLOUDY    56  49  77 SW10      29.86F
FAIRFIELD *    CLOUDY    55  50  82 SW12      29.84F
FORT MADISON * CLOUDY    59  52  77 S14G20    29.87F
KEOKUK *       CLOUDY    59  50  72 S12G21    29.86F
OSKALOOSA *    CLOUDY    50  48  93 S6        29.82F FOG
CENTERVILLE *  CLOUDY    55  55 100 S14G20    29.83F
OTTUMWA        CLOUDY    53  49  86 SW8       29.82F
WASHINGTON *   PTSUNNY   54  54 100 SW10      29.83F
$$

ABBREVIATIONS USED IN REMARKS
   TC - TEMPERATURES IN CELSIUS
  WCI - WIND CHILL INDEX
   HX - HEAT INDEX
  VSB - VISIBILITY
$$



USA.gov is the U.S. government's official web portal to all federal, state and local government web resources and services.